Weather in Sutka

Russia / Yaroslavl Oblast     58°20′29″N   37°32′36″E
temp.,
°C
wind,
m/s
gust,
m/s
humid.,
%
clouds,
%
prec.,
mm/h
press.,
hPa
HPBL,
m
10 august, wed
wed1000:00+14n268251 0.0 1024172
03:00+11n23977 0.0 102458
06:00+12nnw259013 0.0 1025128
09:00+17n35621 0.0 1025600
12:00+20nne34426 0.0 10251959
15:00+21nne233821 0.0 10242140
18:00+20n234685 0.0 10231043
21:00+16ne226073 0.0 102554
11 august, thu
thu1100:00+12nnw11783 0.0 102611
03:00+11wnw11802 0.0 102612
06:00+12w11783 0.0 102715
09:00+19wsw12490 0.0 1026522
12:00+22w123721 0.0 10261823
15:00+23wsw23365 0.0 10241926
18:00+22sw24465 0.0 10231050
21:00+16sw2568100 0.0 102476
12 august, fri
fri1200:00+14wsw2673100 0.0 1024108
03:00+13wsw2680100 0.0 1024100
06:00+13wsw397752 0.0 1024173
09:00+20wsw3756100 0.0 1024449
12:00+24w464332 0.0 10231295
15:00+26w463970 0.0 10221672
18:00+24w364822 0.0 10221057
21:00+18w267288 0.0 1022105
13 august, sat
sat1300:00+16wnw26775 0.0 1023112
03:00+15nw128538 0.0 102315
06:00+16sw0183100 0.0 102412
09:00+22s126277 0.0 1024436
12:00+25ssw1250100 0.0 10231428
15:00+24s1253100 0.0 10221177
18:00+24ese126191 0.0 1021108
21:00+19sse117992 0.0 102213
14 august, sun
sun1400:00+18s1178100 0.0 102213
03:00+18ssw118132 0.0 102121
06:00+17sw228174 0.0 102130
09:00+23sw1255100 0.0 1021375
12:00+24s2355100 0.0 1020582
15:00+26ssw3446100 0.0 10191752
18:00+23ssw355957 0.0 1019514
21:00+19ssw247299 0.0 101984